Back to catalog

COSMOS 2100

AliveMilitaryPO
NORAD 20804·PAYLOAD·🇷🇺 Russia

Launched Sep 14, 1990 from Plesetsk Cosmodrome

Loading…

Next Passes (next 24 hours)

TLE

FreshSource: Space-Track

Epoch: Sep 14, 2026, 01:41 UTC

1 20804U 90083A   26257.07053057  .00000027  00000-0  11794-4 0  9998
2 20804  82.9358 102.0118 0037582  32.3503 132.9808 13.74571746805442

Track COSMOS 2100 in real time with AllMySat

Download on the App Store